When you browse on this site, cookies collect data to enhance your experience and personalize the content and advertising you see.
Visit our Privacy Policy to learn more. By continuing to use the site, you agree to this use of cookies and data.
  • In Sweden
  • List of Countries
  • For 7 days
  • Water Temperature
  • Satellite Maps
  • Weather Map
  • Weather Widgets
  • user-avatar
    Login

    Hourly Weather Medina

    Today, 17 July, Wednesday

    Time Temperature Precipitation Wind Pressure Humidity
    00:00 +28°C° 0 mm 1 mps 687 mmHg 22%
    01:00 +27°C° 0 mm 1 mps 686 mmHg 22%
    02:00 +27°C° 0 mm 1 mps 686 mmHg 22%
    03:00 +26°C° 0 mm 1 mps 686 mmHg 22%
    04:00 +26°C° 0 mm 1 mps 686 mmHg 23%
    05:00 +26°C° 0 mm 1 mps 686 mmHg 23%
    06:00 +24°C° 0 mm 0 mps 686 mmHg 24%
    07:00 +29°C° 0 mm 1 mps 687 mmHg 21%
    08:00 +32°C° 0 mm 2 mps 688 mmHg 18%
    09:00 +37°C° 0 mm 3 mps 689 mmHg 15%
    10:00 +39°C° 0 mm 3 mps 689 mmHg 13%
    11:00 +40°C° 0 mm 3 mps 689 mmHg 11%
    12:00 +43°C° 0 mm 3 mps 689 mmHg 9%
    13:00 +43°C° 0 mm 3 mps 688 mmHg 8%
    14:00 +44°C° 0 mm 3 mps 688 mmHg 8%
    15:00 +45°C° 0 mm 2 mps 687 mmHg 7%
    16:00 +44°C° 0 mm 3 mps 687 mmHg 7%
    17:00 +44°C° 0 mm 3 mps 687 mmHg 8%
    18:00 +44°C° 0 mm 4 mps 687 mmHg 8%
    19:00 +40°C° 0 mm 3 mps 687 mmHg 13%
    20:00 +37°C° 0 mm 3 mps 687 mmHg 18%
    21:00 +34°C° 0 mm 3 mps 687 mmHg 23%
    22:00 +32°C° 0 mm 2 mps 687 mmHg 22%
    23:00 +31°C° 0 mm 2 mps 687 mmHg 22%

    Tomorrow, 18 July, Thursday

    Time Temperature Precipitation Wind Pressure Humidity
    00:00 +30°C° 0 mm 1 mps 687 mmHg 22%
    01:00 +29°C° 0 mm 1 mps 686 mmHg 21%
    02:00 +29°C° 0 mm 1 mps 686 mmHg 20%
    03:00 +28°C° 0 mm 1 mps 686 mmHg 18%
    04:00 +28°C° 0 mm 1 mps 686 mmHg 19%
    05:00 +27°C° 0 mm 1 mps 686 mmHg 19%
    06:00 +27°C° 0 mm 1 mps 686 mmHg 19%
    07:00 +30°C° 0 mm 1 mps 687 mmHg 16%
    08:00 +35°C° 0 mm 2 mps 688 mmHg 13%
    09:00 +38°C° 0 mm 3 mps 689 mmHg 10%
    10:00 +40°C° 0 mm 3 mps 689 mmHg 9%
    11:00 +42°C° 0 mm 4 mps 689 mmHg 8%
    12:00 +44°C° 0 mm 4 mps 690 mmHg 8%
    13:00 +45°C° 0 mm 4 mps 689 mmHg 7%
    14:00 +45°C° 0 mm 3 mps 689 mmHg 7%
    15:00 +45°C° 0 mm 3 mps 688 mmHg 7%
    16:00 +45°C° 0 mm 4 mps 688 mmHg 9%
    17:00 +44°C° 0 mm 4 mps 688 mmHg 10%
    18:00 +43°C° 0 mm 5 mps 687 mmHg 12%
    19:00 +41°C° 0 mm 4 mps 688 mmHg 14%
    20:00 +38°C° 0 mm 4 mps 688 mmHg 17%
    21:00 +36°C° 0 mm 4 mps 688 mmHg 19%
    22:00 +36°C° 0 mm 3 mps 688 mmHg 19%
    23:00 +35°C° 0 mm 3 mps 688 mmHg 18%

    Day after tomorrow, 19 July, Friday

    Time Temperature Precipitation Wind Pressure Humidity
    00:00 +35°C° 0 mm 2 mps 688 mmHg 18%
    01:00 +34°C° 0 mm 2 mps 688 mmHg 17%
    02:00 +34°C° 0 mm 2 mps 688 mmHg 17%
    03:00 +32°C° 0 mm 1 mps 687 mmHg 17%
    04:00 +32°C° 0 mm 1 mps 687 mmHg 18%
    05:00 +31°C° 0 mm 1 mps 687 mmHg 18%
    06:00 +30°C° 0 mm 1 mps 688 mmHg 19%
    07:00 +34°C° 0 mm 2 mps 688 mmHg 17%
    08:00 +37°C° 0 mm 3 mps 689 mmHg 14%
    09:00 +41°C° 0 mm 4 mps 690 mmHg 12%
    10:00 +42°C° 0 mm 4 mps 689 mmHg 11%
    11:00 +43°C° 0 mm 3 mps 689 mmHg 10%
    12:00 +45°C° 0 mm 3 mps 689 mmHg 9%
    13:00 +45°C° 0 mm 3 mps 689 mmHg 9%
    14:00 +45°C° 0 mm 3 mps 688 mmHg 9%
    15:00 +45°C° 0 mm 3 mps 687 mmHg 9%
    16:00 +45°C° 0 mm 4 mps 687 mmHg 10%
    17:00 +44°C° 0 mm 4 mps 687 mmHg 11%
    18:00 +43°C° 0 mm 5 mps 687 mmHg 12%
    19:00 +42°C° 0 mm 4 mps 687 mmHg 14%
    20:00 +40°C° 0 mm 4 mps 687 mmHg 16%
    21:00 +38°C° 0 mm 4 mps 688 mmHg 18%
    22:00 +37°C° 0 mm 3 mps 688 mmHg 17%
    23:00 +35°C° 0 mm 3 mps 687 mmHg 16%

    20 July, Saturday

    Time Temperature Precipitation Wind Pressure Humidity
    00:00 +34°C° 0 mm 2 mps 687 mmHg 15%
    01:00 +32°C° 0 mm 2 mps 687 mmHg 14%
    02:00 +32°C° 0 mm 2 mps 687 mmHg 14%
    03:00 +31°C° 0 mm 2 mps 686 mmHg 14%
    04:00 +30°C° 0 mm 1 mps 686 mmHg 14%
    05:00 +29°C° 0 mm 1 mps 686 mmHg 14%
    06:00 +26°C° 0 mm 0 mps 686 mmHg 15%
    07:00 +31°C° 0 mm 1 mps 687 mmHg 13%
    08:00 +34°C° 0 mm 1 mps 688 mmHg 10%
    09:00 +39°C° 0 mm 2 mps 688 mmHg 8%
    10:00 +40°C° 0 mm 1 mps 688 mmHg 8%
    11:00 +42°C° 0 mm 1 mps 688 mmHg 7%
    12:00 +40°C° 0 mm 0 mps 688 mmHg 7%
    13:00 +44°C° 0 mm 1 mps 688 mmHg 7%
    14:00 +46°C° 0 mm 2 mps 687 mmHg 6%
    15:00 +46°C° 0 mm 3 mps 687 mmHg 6%
    16:00 +47°C° 0 mm 4 mps 687 mmHg 6%
    17:00 +46°C° 0 mm 5 mps 687 mmHg 7%
    18:00 +46°C° 0 mm 6 mps 686 mmHg 7%
    19:00 +42°C° 0 mm 6 mps 686 mmHg 10%
    20:00 +40°C° 0 mm 5 mps 686 mmHg 13%
    21:00 +36°C° 0 mm 5 mps 686 mmHg 15%
    22:00 +35°C° 0 mm 4 mps 686 mmHg 16%
    23:00 +34°C° 0 mm 3 mps 686 mmHg 18%

    21 July, Sunday

    Time Temperature Precipitation Wind Pressure Humidity
    00:00 +31°C° 0 mm 2 mps 686 mmHg 19%
    01:00 +31°C° 0 mm 2 mps 686 mmHg 19%
    02:00 +30°C° 0 mm 2 mps 686 mmHg 19%
    03:00 +29°C° 0 mm 1 mps 685 mmHg 19%
    04:00 +29°C° 0 mm 1 mps 685 mmHg 19%
    05:00 +28°C° 0 mm 1 mps 685 mmHg 20%
    06:00 +27°C° 0 mm 1 mps 685 mmHg 20%
    07:00 +31°C° 0 mm 2 mps 686 mmHg 16%
    08:00 +35°C° 0 mm 2 mps 687 mmHg 12%
    09:00 +38°C° 0 mm 3 mps 687 mmHg 8%
    10:00 +40°C° 0 mm 3 mps 688 mmHg 7%
    11:00 +43°C° 0 mm 3 mps 688 mmHg 6%
    12:00 +46°C° 0 mm 3 mps 688 mmHg 5%
    13:00 +46°C° 0 mm 3 mps 687 mmHg 5%
    14:00 +47°C° 0 mm 3 mps 687 mmHg 5%
    15:00 +47°C° 0 mm 2 mps 686 mmHg 5%
    16:00 +47°C° 0 mm 3 mps 686 mmHg 5%
    17:00 +47°C° 0 mm 3 mps 686 mmHg 5%
    18:00 +46°C° 0 mm 3 mps 686 mmHg 6%
    19:00 +43°C° 0 mm 3 mps 686 mmHg 9%
    20:00 +39°C° 0 mm 3 mps 686 mmHg 12%
    21:00 +36°C° 0 mm 3 mps 686 mmHg 15%
    22:00 +35°C° 0 mm 3 mps 686 mmHg 15%
    23:00 +34°C° 0 mm 3 mps 686 mmHg 15%

    22 July, Monday

    Time Temperature Precipitation Wind Pressure Humidity
    00:00 +33°C° 0 mm 3 mps 685 mmHg 15%
    01:00 +31°C° 0 mm 2 mps 685 mmHg 15%
    02:00 +30°C° 0 mm 2 mps 684 mmHg 15%
    03:00 +29°C° 0 mm 1 mps 684 mmHg 15%
    04:00 +28°C° 0 mm 1 mps 684 mmHg 15%
    05:00 +28°C° 0 mm 1 mps 684 mmHg 15%
    06:00 +28°C° 0 mm 1 mps 684 mmHg 15%
    07:00 +31°C° 0 mm 2 mps 685 mmHg 13%
    08:00 +35°C° 0 mm 2 mps 686 mmHg 11%
    09:00 +38°C° 0 mm 2 mps 687 mmHg 9%
    10:00 +40°C° 0 mm 2 mps 687 mmHg 8%
    11:00 +43°C° 0 mm 2 mps 687 mmHg 8%
    12:00 +46°C° 0 mm 2 mps 687 mmHg 7%
    13:00 +47°C° 0 mm 2 mps 686 mmHg 7%
    14:00 +47°C° 0 mm 2 mps 686 mmHg 6%
    15:00 +48°C° 0 mm 2 mps 686 mmHg 6%
    16:00 +48°C° 0 mm 4 mps 685 mmHg 7%
    17:00 +47°C° 0 mm 6 mps 685 mmHg 8%
    18:00 +46°C° 0 mm 8 mps 685 mmHg 10%
    19:00 +42°C° 0 mm 6 mps 685 mmHg 14%
    20:00 +39°C° 0 mm 5 mps 685 mmHg 19%
    21:00 +36°C° 0 mm 3 mps 685 mmHg 23%
    22:00 +35°C° 0 mm 3 mps 685 mmHg 23%
    23:00 +34°C° 0 mm 2 mps 685 mmHg 23%
    Show more